#timestamp,LO_Frequency,Hit,StdDev 
1700978415.4,286046998.8,N
1700978435.2,286046998.7,N
1700978455.0,286046999.4,N
1700978456.0,286046999.4,N
1700978475.8,286046999.0,N
1700978495.6,286046999.2,N
1700978515.5,286046998.2,N
1700978535.3,286046999.4,N
1700978555.1,286046999.0,N
1700978575.9,286046998.7,N
1700978595.7,286046998.8,N
1700978615.6,286046997.1,Y
1700978635.4,286046996.8,P
1700978655.2,286046997.2,N
1700978675.1,286046997.2,N
1700978676.0,286046997.2,Y
1700978695.8,286047000.8,P
1700978715.7,286047000.0,N
1700978735.5,286046999.9,N
1700978755.3,286047000.1,N
1700978775.2,286047002.6,N
1700978795.9,286047001.5,N
1700978815.7,286047004.0,N
1700978835.6,286047003.9,N
1700978855.4,286047004.2,N
1700978875.2,286047004.0,N
1700978895.1,286047002.6,N
1700978896.0,286047002.6,N
1700978915.8,286047002.1,N
1700978935.7,286047002.3,N
1700978955.5,286047002.8,N
1700978975.3,286047002.6,N
1700978995.2,286047002.2,N
1700979015.0,286047001.7,N
1700979015.9,286047001.7,N
1700979035.7,286047002.4,N
1700979055.6,286047000.2,N
1700979075.4,286046999.9,N
1700979095.3,286047000.1,N
1700979115.1,286047000.9,N
1700979135.8,286047000.8,N
1700979155.7,286047000.8,N
1700979175.5,286047000.9,N
1700979195.4,286047000.4,N
1700979215.2,286046999.8,N
1700979235.1,286047000.9,N
1700979236.0,286047000.9,N
1700979255.8,286046998.2,N
1700979275.6,286046998.3,N
1700979295.5,286047000.3,N
1700979315.3,286047001.1,N
1700979335.1,286046998.5,N
1700979355.9,286046999.4,N
1700979375.7,286046999.1,N
1700979395.6,286046997.1,N
1700979415.4,286046999.4,N
1700979435.2,286046996.5,N
1700979455.1,286046999.4,N
1700979456.0,286046999.4,N
1700979475.8,286046999.1,N
1700979495.6,286046999.3,N
1700979515.5,286046999.6,N
1700979535.3,286046999.3,N
1700979555.2,286046999.5,N
1700979575.9,286046997.0,N
1700979595.7,286046996.7,N
1700979615.6,286046997.4,N
1700979635.4,286046996.6,N
1700979655.2,286046999.1,N
1700979675.1,286046998.3,N
1700979676.0,286046998.3,N
1700979695.8,286046998.1,N
1700979715.7,286046998.3,N
1700979735.5,286046997.2,N
1700979755.3,286046997.9,N
1700979775.2,286046997.4,N
1700979795.0,286046997.2,N
1700979795.9,286046997.2,N
1700979815.7,286046997.4,N
1700979835.6,286046999.2,N
1700979855.4,286047001.2,N
1700979875.3,286047000.8,N
1700979895.1,286047000.8,N
1700979915.9,286046998.5,N
1700979935.7,286046998.8,N
1700979955.5,286046998.8,N
1700979975.4,286046998.4,N
1700979995.2,286046998.3,N
1700980015.0,286046998.9,N
1700980015.9,286046998.9,N
1700980035.8,286046999.1,N
1700980055.6,286046999.3,N
1700980075.5,286046996.6,N
1700980095.3,286046997.0,N
1700980115.1,286046997.2,N
1700980135.9,286046997.3,N
1700980155.7,286046997.2,N
1700980175.5,286046996.9,N
1700980195.4,286046997.3,N
1700980215.2,286046997.7,N
1700980235.1,286046995.1,Y
1700980236.0,286046995.1,P
1700980255.8,286046997.3,N
1700980275.6,286046998.0,N
1700980295.5,286046997.1,N
1700980315.3,286046997.0,N
1700980335.2,286046998.6,N
1700980355.9,286047000.9,N
1700980375.7,286046998.1,N
1700980395.6,286046998.4,N
1700980415.4,286047000.8,N
1700980435.2,286047000.8,N
1700980455.1,286047000.1,N
1700980456.0,286047000.1,N
1700980475.8,286047002.3,N
1700980495.7,286047002.8,N
1700980515.5,286047001.6,N
1700980535.3,286047002.0,N
1700980555.2,286047001.8,N
1700980575.0,286047001.4,N
1700980575.9,286047001.4,N
1700980595.8,286047001.5,N
1700980615.6,286047001.3,N
1700980635.4,286047001.5,N
1700980655.3,286047002.0,N
1700980675.1,286047002.1,N
1700980695.9,286047001.6,N
1700980715.7,286047004.2,N
1700980735.5,286047001.7,N
1700980755.4,286047001.8,N
1700980775.2,286047001.8,N
1700980795.1,286047001.9,N
1700980796.0,286047001.9,N
1700980815.8,286047002.8,N
1700980835.6,286047000.4,N
1700980885.5,286046998.4,E
1700980895.4,286047000.6,N
1700980915.3,286047002.8,P
1700980935.1,286047000.2,N
1700980936.0,286047000.2,N
1700980955.8,286046999.9,N
1700980975.7,286046998.1,N
1700980995.5,286046998.1,N
1700981015.3,286047000.0,N
1700981035.2,286047000.4,N
1700981055.0,286047002.4,N
1700981055.9,286047002.4,N
1700981075.8,286047002.8,N
1700981095.6,286047002.8,N
1700981115.4,286047001.5,N
1700981135.3,286047001.6,N
1700981155.1,286047001.8,N
1700981175.9,286047001.9,N
1700981195.7,286047001.3,N
1700981215.5,286047004.0,N
1700981235.4,286047003.0,N
1700981255.2,286047003.2,N
1700981275.0,286047002.9,N
1700981276.0,286047002.9,N
1700981295.8,286047005.7,Y
1700981315.6,286047001.4,P
1700981335.5,286047004.3,P
1700981355.3,286047003.0,N
1700981375.1,286047005.9,Y
1700981395.9,286047001.6,P
1700981415.7,286047002.8,P
1700981435.6,286047001.3,N
1700981455.4,286047002.3,Y
1700981475.2,286046998.4,P
1700981495.1,286046998.7,N
1700981496.0,286046998.7,N
1700981515.8,286047000.4,N
1700981535.6,286046998.3,N
1700981555.5,286046998.7,N
1700981575.3,286047001.0,N
1700981595.2,286047000.2,N
1700981615.9,286047002.8,N
1700981635.7,286047000.0,N
1700981655.6,286047001.0,N
1700981675.4,286047000.0,N
1700981695.3,286047000.2,N
1700981715.1,286047000.4,N
1700981716.0,286047000.4,N
1700981735.8,286047002.6,N
1700981755.7,286047002.2,N
1700981775.5,286047002.2,N
1700981795.3,286047001.6,N
1700981815.2,286047002.6,N
1700981835.0,286047002.1,N
1700981835.9,286047002.1,N
1700981855.8,286047002.2,N
1700981875.6,286047003.1,N
1700981895.4,286047004.1,N
1700981915.3,286047003.5,N
1700981935.1,286047001.6,N
1700981955.9,286047001.9,N
1700981975.7,286047002.5,N
1700981995.5,286047000.9,N
